Location: Unspecified
(0.0000°N, 0.0000°E)
Time: 16:57:04
(UTC+00:00)

N. Korean satellite - Pass Details

Date: 27 June 2022
Orbit: 433 x 477 km, 97.3° (Epoch: 26 June)

Event Time Altitude Azimuth Distance (km) Brightness Sun altitude
Rises 04:32:51 0° 21° (NNE) 2,405 10.8 -20.6°
Reaches altitude 10° 04:34:54 10° 29° (NNE) 1,545 9.9 -20.2°
Maximum altitude 04:38:04 42° 101° (E) 640 7.5 -19.4°
Enters shadow 04:40:31 15° 169° (SSE) 1,276 8.5 -18.9°
